Location: Alpha Ridge Park
(39.3209°N, 76.9128°W)
Time: 01:23:42
(UTC-04:00)

Transit 2A - Pass Details

Date: 24 May 2019
Orbit: 593 x 966 km, 66.7° (Epoch: 18 June)

Event Time Altitude Azimuth Distance (km) Brightness Sun altitude
Rises 18:05:00 0° 323° (NW) 3,510 10.1 24.3°
Reaches altitude 10° 18:07:47 10° 315° (NW) 2,512 9.6 23.7°
Maximum altitude 18:13:00 36° 251° (WSW) 1,259 8.5 22.7°
Drops below altitude 10° 18:17:45 10° 186° (S) 2,267 8.5 21.8°
Sets 18:20:09 0° 177° (S) 3,126 9.0 21.4°
